Cecil Field, FL

6:38 AM EDT on April 24, 2017 (GMT -0400)
Cecil

Weather History for KVQQ - May, 2013

Change the Weather History Date:

Thursday, May 2, 2013

  Actual Average (KNIP) Record (KNIP)
Temperature  
Mean Temperature 66 °F -  
Max Temperature 69 °F 80 °F 93 °F (2002)
Min Temperature 64 °F 63 °F 55 °F (1999)
Cooling Degree Days 2    
Growing Degree Days 16 (Base 50)    
Moisture  
Dew Point 66 °F    
Average Humidity 99    
Maximum Humidity 100    
Minimum Humidity 88    
Precipitation  
Precipitation 0.13 in - - ()
Sea Level Pressure  
Sea Level Pressure 29.97 in    
Wind  
Wind Speed 8 mph (NE)    
Max Wind Speed 16 mph    
Max Gust Speed 24 mph    
Visibility 5 miles    
Events Rain    
Averages and records for this station are not official NWS values.
T = Trace of Precipitation, MM = Missing Value Source: NWS Daily Summary

Daily Weather History Graph

Daily Weather History Graph

Search for Another Location

Airport or City:

Trip Planner

Search our weather history database for the weather conditions in past years. The results will help you decide how hot, cold, wet, or windy it might be!

Date:

Astronomy

May. 02, 2013 Rise Set
Actual Time 6:43 AM EDT 8:06 PM EDT
Civil Twilight 6:17 AM EDT 8:31 PM EDT
Nautical Twilight 5:47 AM EDT 9:02 PM EDT
Astronomical Twilight 5:15 AM EDT 9:33 PM EDT
Moon 1:58 AM EDT (5/2) 1:23 PM EDT (5/2)
Length of Visible Light 14h 13m
Length of Day
13h 22m
Waning Gibbous, 48% of the Moon is Illuminated
May 2
Waning Gibbous
May 9
New
May 18
First Quarter
May 25
Full
May 31
Last Quarter

Hourly Weather History & Observations

Time (EDT) Temp. Dew Point Humidity Pressure Visibility Wind Dir Wind Speed Gust Speed Precip Events Conditions
12:15 AM 66.2 °F 62.6 °F 88% 30.05 in 10.0 mi North 8.1 mph - N/A   Overcast
12:35 AM 64.4 °F 64.4 °F 100% 30.04 in 10.0 mi North 9.2 mph - N/A   Mostly Cloudy
12:55 AM 64.4 °F 64.4 °F 100% 30.04 in 10.0 mi NNE 6.9 mph - N/A   Scattered Clouds
1:15 AM 66.2 °F 64.4 °F 94% 30.03 in 10.0 mi North 5.8 mph - N/A   Overcast
1:35 AM 66.2 °F 64.4 °F 94% 30.03 in 10.0 mi North 8.1 mph - N/A   Overcast
1:55 AM 66.2 °F 64.4 °F 94% 30.02 in 10.0 mi North 5.8 mph - N/A   Overcast
2:35 AM 66.2 °F 66.2 °F 100% 30.00 in 9.0 mi North 3.5 mph - N/A   Overcast
2:55 AM 66.2 °F 66.2 °F 100% 29.99 in 8.0 mi North 5.8 mph - N/A   Overcast
3:15 AM 66.2 °F 66.2 °F 100% 29.99 in 8.0 mi Calm Calm - N/A   Overcast
3:35 AM 66.2 °F 66.2 °F 100% 29.99 in 9.0 mi NNE 5.8 mph - N/A   Overcast
3:55 AM 66.2 °F 66.2 °F 100% 29.99 in 8.0 mi North 6.9 mph - N/A   Overcast
4:15 AM 68.0 °F 66.2 °F 94% 29.99 in 7.0 mi North 5.8 mph - N/A   Overcast
4:35 AM 68.0 °F 66.2 °F 94% 29.99 in 6.0 mi North 5.8 mph - N/A   Overcast
4:55 AM 68.0 °F 66.2 °F 94% 29.98 in 6.0 mi North 5.8 mph - N/A   Overcast
5:15 AM 68.0 °F 66.2 °F 94% 29.97 in 5.0 mi Calm Calm - N/A   Overcast
5:35 AM 66.2 °F 66.2 °F 100% 29.97 in 5.0 mi North 4.6 mph - N/A   Mostly Cloudy
5:55 AM 68.0 °F 68.0 °F 100% 29.97 in 5.0 mi Calm Calm - N/A   Overcast
6:15 AM 68.0 °F 68.0 °F 100% 29.97 in 6.0 mi North 6.9 mph - N/A   Overcast
6:35 AM 68.0 °F 68.0 °F 100% 29.97 in 6.0 mi North 6.9 mph - N/A   Overcast
6:50 AM 68.0 °F 68.0 °F 100% 29.97 in 3.0 mi North 8.1 mph - N/A   Overcast
7:50 AM 68.0 °F 68.0 °F 100% 29.98 in 6.0 mi NNE 6.9 mph - N/A   Overcast
8:50 AM 69.8 °F 68.0 °F 94% 30.00 in 6.0 mi ENE 6.9 mph - N/A   Overcast
9:50 AM 68.0 °F 68.0 °F 100% 30.00 in 3.0 mi ENE 10.4 mph - N/A Rain Light Rain
10:50 AM 68.0 °F 68.0 °F 100% 29.99 in 7.0 mi ENE 5.8 mph - N/A   Overcast
11:50 AM 68.0 °F 68.0 °F 100% 30.00 in 7.0 mi East 9.2 mph - N/A Rain Light Rain
12:50 PM 68.0 °F 68.0 °F 100% 30.01 in 2.0 mi East 11.5 mph - N/A Rain Light Rain
1:50 PM 68.0 °F 68.0 °F 100% 29.99 in 2.0 mi ENE 16.1 mph - N/A Rain Light Rain
2:50 PM 66.2 °F 66.2 °F 100% 29.98 in 3.0 mi East 9.2 mph - N/A Rain Light Rain
3:30 PM 66.2 °F 66.2 °F 100% 29.97 in 3.0 mi ENE 5.8 mph - N/A Rain Light Rain
3:50 PM 66.2 °F 66.2 °F 100% 29.97 in 3.0 mi East 9.2 mph - N/A Rain Light Rain
5:50 PM 68.0 °F 68.0 °F 100% 29.94 in 1.0 mi ENE 16.1 mph - N/A Rain Rain
6:50 PM 66.2 °F 66.2 °F 100% 29.93 in 2.0 mi East 10.4 mph - N/A Rain Light Rain
7:50 PM 66.2 °F 66.2 °F 100% 29.93 in 1.0 mi ENE 12.7 mph - N/A Rain Rain
8:15 PM 66.2 °F 66.2 °F 100% 29.94 in 1.2 mi ENE 8.1 mph - 0.02 in Rain Light Rain
8:35 PM 66.2 °F 66.2 °F 100% 29.93 in 0.8 mi NE 13.8 mph 21.9 mph 0.08 in Rain Light Rain
8:55 PM 66.2 °F 66.2 °F 100% 29.93 in 2.5 mi NE 10.4 mph 16.1 mph 0.09 in Rain Light Rain
9:15 PM 66.2 °F 66.2 °F 100% 29.93 in 3.0 mi NE 9.2 mph - N/A Rain Light Rain
9:35 PM 66.2 °F 66.2 °F 100% 29.93 in 3.0 mi NE 10.4 mph 18.4 mph N/A Rain Light Rain
9:55 PM 66.2 °F 66.2 °F 100% 29.93 in 2.5 mi NE 9.2 mph 16.1 mph N/A Rain Light Rain
10:15 PM 66.2 °F 66.2 °F 100% 29.93 in 1.2 mi NE 9.2 mph - 0.01 in Rain Light Rain
10:35 PM 66.2 °F 66.2 °F 100% 29.93 in 2.0 mi NE 8.1 mph - 0.03 in Rain Light Rain
10:55 PM 66.2 °F 66.2 °F 100% 29.93 in 2.5 mi ENE 13.8 mph 24.2 mph 0.04 in Rain Light Rain
11:15 PM 64.4 °F 64.4 °F 100% 29.93 in 1.8 mi ENE 12.7 mph 21.9 mph N/A Rain Light Rain
11:35 PM 66.2 °F 66.2 °F 100% 29.93 in 2.0 mi NE 11.5 mph 18.4 mph N/A   Overcast
11:55 PM 66.2 °F 66.2 °F 100% 29.92 in 2.5 mi NE 10.4 mph 20.7 mph N/A   Overcast